{"data":{"norad_id":53600,"intl_designator":"2022-104N","name":"STARLINK-4677","alt_names":[],"object_type":"PAYLOAD","status":"ACTIVE","operator":null,"country":"US","launch_date":"2022-08-28","launch_site_code":"AFETR","launch_vehicle":null,"mission":null,"orbit_class":"UNKNOWN","rcs_meters":null,"size_class":null,"mass_kg":null,"dimensions":null,"purposes":["comms"],"wikipedia_slug":null,"has_3d_model":false,"image_url":null,"decayed_at":null,"tle_current":{"epoch":"2026-05-25T00:42:12.753792Z","epoch_age_seconds":72595,"freshness":"FRESH","line1":"1 53600U 22104N   26145.02931428  .00000470  00000+0  47644-4 0  9999","line2":"2 53600  53.2143 261.8202 0001225  88.6014 271.5119 15.08835584207138","mean_motion":15.08835584,"eccentricity":0.0001225,"inclination_deg":53.2143,"raan_deg":261.8202,"arg_perigee_deg":88.6014,"mean_anomaly_deg":271.5119,"bstar":4.7644e-5,"rev_number":20713,"period_min":95.437834000606,"perigee_km":538.90944494123,"apogee_km":540.60432894353,"semimajor_km":6917.8938869424,"source":"CELESTRAK","updated_at":"2026-05-25T13:38:17.475427Z"}}}